| time (UTC) | temp F | wind direction | speed knots | gust knots | rain 1hr in | rain 24hr in | rain mn in | humidity % | barometer mb |
| 20260503220903 | 53 | 351 | 0.0 | 0.9 | 0.00 | 0.00 | 0.00 | 77 | 1016.4 |
| 20260503220233 | 54 | 0 | 0.0 | 0.0 | 0.00 | 0.00 | 0.00 | 76 | 1016.4 |
| 20260503215404 | 54 | 0 | 0.0 | 0.0 | 0.00 | 0.00 | 0.00 | 77 | 1016.4 |
| 20260503214504 | 54 | 0 | 0.0 | 0.0 | 0.00 | 0.00 | 0.00 | 78 | 1016.3 |
| 20260503213603 | 54 | 0 | 0.0 | 0.0 | 0.00 | 0.00 | 0.00 | 76 | 1016.4 |
| 20260503212703 | 55 | 0 | 0.0 | 0.0 | 0.00 | 0.00 | 0.00 | 75 | 1016.3 |
| 20260503211803 | 55 | 333 | 0.9 | 5.2 | 0.00 | 0.00 | 0.00 | 74 | 1016.4 |
| 20260503210903 | 54 | 328 | 0.0 | 4.3 | 0.00 | 0.00 | 0.00 | 76 | 1016.4 |
| 20260503210004 | 55 | 326 | 0.9 | 4.3 | 0.00 | 0.00 | 0.00 | 75 | 1016.4 |
| 20260503205403 | 55 | 324 | 1.7 | 4.3 | 0.00 | 0.00 | 0.00 | 75 | 1016.4 |
| 20260503204717 | 55 | 323 | 1.7 | 4.3 | 0.00 | 0.00 | 0.00 | 76 | 1016.4 |
| 20260503203603 | 56 | 322 | 0.0 | 4.3 | 0.00 | 0.00 | 0.00 | 74 | 1016.4 |
| 20260503202703 | 56 | 322 | 0.9 | 4.3 | 0.00 | 0.00 | 0.00 | 75 | 1016.5 |
| 20260503202020 | 57 | 322 | 0.0 | 3.5 | 0.00 | 0.00 | 0.00 | 74 | 1016.5 |
| 20260503200904 | 56 | 318 | 0.9 | 5.2 | 0.00 | 0.00 | 0.00 | 75 | 1016.4 |
| 20260503200004 | 56 | 0 | 0.0 | 0.0 | 0.00 | 0.00 | 0.00 | 75 | 1016.5 |
| 20260503195403 | 57 | 0 | 0.0 | 0.0 | 0.00 | 0.00 | 0.00 | 74 | 1016.5 |
| 20260503194504 | 57 | 0 | 0.0 | 0.0 | 0.00 | 0.00 | 0.00 | 75 | 1016.5 |
| 20260503193603 | 56 | 0 | 0.0 | 0.0 | 0.00 | 0.00 | 0.00 | 76 | 1016.5 |
| 20260503192703 | 57 | 0 | 0.0 | 0.0 | 0.00 | 0.00 | 0.00 | 76 | 1016.4 |
| 20260503191803 | 58 | 0 | 0.0 | 0.0 | 0.00 | 0.00 | 0.00 | 75 | 1016.4 |
| 20260503191118 | 58 | 0 | 0.0 | 0.0 | 0.00 | 0.00 | 0.00 | 74 | 1016.3 |
| 20260503190004 | 58 | 0 | 0.0 | 0.0 | 0.00 | 0.00 | 0.00 | 73 | 1016.3 |
| 20260503185403 | 59 | 0 | 0.0 | 0.0 | 0.00 | 0.00 | 0.00 | 72 | 1016.2 |
| 20260503184503 | 60 | 0 | 0.0 | 0.0 | 0.00 | 0.00 | 0.00 | 71 | 1016.1 |
| 20260503183603 | 61 | 0 | 0.0 | 0.0 | 0.00 | 0.00 | 0.00 | 69 | 1016.0 |
| 20260503182704 | 62 | 0 | 0.0 | 0.0 | 0.00 | 0.00 | 0.00 | 67 | 1015.8 |
| 20260503181804 | 63 | 0 | 0.0 | 0.0 | 0.00 | 0.00 | 0.00 | 67 | 1015.7 |
| 20260503180903 | 65 | 0 | 0.0 | 0.0 | 0.00 | 0.00 | 0.00 | 64 | 1015.6 |
| 20260503180005 | 66 | 0 | 0.0 | 0.0 | 0.00 | 0.00 | 0.00 | 61 | 1015.5 |
| 20260503175403 | 68 | 0 | 0.0 | 0.0 | 0.00 | 0.00 | 0.00 | 59 | 1015.5 |
| 20260503174720 | 70 | 0 | 0.0 | 0.0 | 0.00 | 0.00 | 0.00 | 56 | 1015.4 |
| 20260503173603 | 72 | 0 | 0.0 | 0.0 | 0.00 | 0.00 | 0.00 | 51 | 1015.3 |
| 20260503172703 | 72 | 0 | 0.0 | 0.0 | 0.00 | 0.00 | 0.00 | 50 | 1015.4 |
| 20260503171803 | 72 | 150 | 0.0 | 3.5 | 0.00 | 0.00 | 0.00 | 49 | 1015.3 |
| 20260503170904 | 72 | 165 | 0.9 | 4.3 | 0.00 | 0.00 | 0.00 | 48 | 1015.2 |
| 20260503150903 | 76 | 115 | 1.7 | 7.8 | 0.00 | 0.00 | 0.00 | 46 | 1015.4 |
| 20260503150217 | 76 | 126 | 1.7 | 7.8 | 0.00 | 0.00 | 0.00 | 46 | 1015.5 |
| 20260503130904 | 76 | 146 | 1.7 | 6.1 | 0.00 | 0.00 | 0.00 | 44 | 1016.4 |
| 20260503080903 | 67 | 0 | 0.0 | 0.0 | 0.00 | 0.00 | 0.00 | 63 | 1018.5 |
| 20260503072704 | 64 | 0 | 0.0 | 0.0 | 0.00 | 0.00 | 0.00 | 64 | 1018.4 |
| 20260503071803 | 64 | 0 | 0.0 | 0.0 | 0.00 | 0.00 | 0.00 | 66 | 1018.4 |
| 20260503070904 | 63 | 0 | 0.0 | 0.0 | 0.00 | 0.00 | 0.00 | 69 | 1018.4 |
| 20260503060218 | 54 | 156 | 0.0 | 3.5 | 0.00 | 0.00 | 0.00 | 76 | 1018.2 |
| 20260503054722 | 53 | 135 | 2.6 | 4.3 | 0.00 | 0.00 | 0.00 | 79 | 1018.1 |
| 20260503053603 | 51 | 1 | 0.0 | 3.5 | 0.00 | 0.00 | 0.00 | 81 | 1018.0 |
| 20260503052704 | 51 | 0 | 0.0 | 0.0 | 0.00 | 0.00 | 0.00 | 79 | 1018.0 |
| 20260503051804 | 51 | 0 | 0.0 | 0.0 | 0.00 | 0.00 | 0.00 | 79 | 1017.9 |
| 20260503050904 | 50 | 0 | 0.0 | 0.0 | 0.00 | 0.00 | 0.00 | 79 | 1018.0 |
| 20260503050004 | 50 | 360 | 0.0 | 1.7 | 0.00 | 0.00 | 0.00 | 78 | 1018.0 |
| 20260503045404 | 50 | 359 | 0.9 | 4.3 | 0.00 | 0.00 | 0.00 | 78 | 1017.9 |
| 20260503044717 | 50 | 359 | 2.6 | 4.3 | 0.00 | 0.00 | 0.00 | 78 | 1018.0 |
| 20260503043603 | 50 | 358 | 0.9 | 6.1 | 0.00 | 0.00 | 0.00 | 78 | 1018.0 |
| 20260503042704 | 50 | 359 | 1.7 | 5.2 | 0.00 | 0.00 | 0.00 | 78 | 1017.9 |
| 20260503041804 | 50 | 358 | 2.6 | 5.2 | 0.00 | 0.00 | 0.00 | 78 | 1018.0 |
| 20260503040904 | 50 | 357 | 2.6 | 6.1 | 0.00 | 0.00 | 0.00 | 78 | 1018.0 |
| 20260503040003 | 49 | 356 | 0.9 | 5.2 | 0.00 | 0.00 | 0.00 | 79 | 1017.9 |
| 20260503035621 | 49 | 356 | 0.9 | 4.3 | 0.00 | 0.00 | 0.00 | 79 | 1017.9 |
| 20260503034503 | 49 | 357 | 1.7 | 6.1 | 0.00 | 0.00 | 0.00 | 79 | 1017.9 |
| 20260503033603 | 49 | 357 | 0.9 | 4.3 | 0.00 | 0.00 | 0.00 | 78 | 1017.8 |
| 20260503032704 | 50 | 358 | 2.6 | 5.2 | 0.00 | 0.00 | 0.00 | 78 | 1017.8 |
| 20260503031804 | 48 | 357 | 2.6 | 6.1 | 0.00 | 0.00 | 0.00 | 82 | 1017.9 |
| 20260503030904 | 46 | 356 | 0.9 | 3.5 | 0.00 | 0.00 | 0.00 | 82 | 1018.0 |
| 20260503030004 | 48 | 356 | 0.9 | 3.5 | 0.00 | 0.00 | 0.00 | 79 | 1018.0 |
| 20260503025404 | 50 | 356 | 0.9 | 5.2 | 0.00 | 0.00 | 0.00 | 78 | 1018.0 |
| 20260503024504 | 50 | 359 | 3.5 | 5.2 | 0.00 | 0.00 | 0.00 | 78 | 1018.0 |
| 20260503023604 | 50 | 359 | 0.9 | 4.3 | 0.00 | 0.00 | 0.00 | 78 | 1018.1 |
| 20260503022703 | 51 | 358 | 1.7 | 5.2 | 0.00 | 0.00 | 0.00 | 77 | 1018.1 |
| 20260503021803 | 51 | 358 | 1.7 | 5.2 | 0.00 | 0.00 | 0.00 | 76 | 1018.2 |
| 20260503020903 | 52 | 2 | 0.0 | 4.3 | 0.00 | 0.00 | 0.00 | 76 | 1018.3 |
| 20260503020004 | 52 | 2 | 1.7 | 4.3 | 0.00 | 0.00 | 0.00 | 76 | 1018.4 |
| 20260503015617 | 51 | 2 | 1.7 | 4.3 | 0.00 | 0.00 | 0.00 | 76 | 1018.3 |
| 20260503014504 | 50 | 2 | 0.0 | 1.7 | 0.00 | 0.00 | 0.00 | 78 | 1018.4 |
| 20260503013822 | 50 | 2 | 0.9 | 2.6 | 0.00 | 0.00 | 0.00 | 78 | 1018.4 |
| 20260503012919 | 51 | 2 | 0.9 | 4.3 | 0.00 | 0.00 | 0.00 | 78 | 1018.4 |
| 20260503011804 | 50 | 2 | 0.9 | 2.6 | 0.00 | 0.00 | 0.00 | 79 | 1018.5 |
| 20260503011119 | 50 | 2 | 0.9 | 3.5 | 0.00 | 0.00 | 0.00 | 79 | 1018.5 |
| 20260503010004 | 50 | 2 | 1.7 | 4.3 | 0.00 | 0.00 | 0.00 | 79 | 1018.6 |
| 20260503005403 | 50 | 2 | 2.6 | 6.1 | 0.00 | 0.00 | 0.00 | 79 | 1018.6 |
| 20260503004504 | 50 | 2 | 0.9 | 4.3 | 0.00 | 0.00 | 0.00 | 78 | 1018.7 |
| 20260503003603 | 50 | 2 | 0.9 | 4.3 | 0.00 | 0.00 | 0.00 | 78 | 1018.8 |
| 20260503002703 | 50 | 2 | 0.9 | 5.2 | 0.00 | 0.00 | 0.00 | 78 | 1018.8 |
| 20260503001804 | 50 | 2 | 0.0 | 2.6 | 0.00 | 0.00 | 0.00 | 77 | 1018.8 |
| 20260503000903 | 50 | 2 | 0.0 | 3.5 | 0.00 | 0.00 | 0.00 | 77 | 1018.8 |
| 20260503000004 | 51 | 2 | 0.9 | 3.5 | 0.00 | 0.00 | 0.00 | 76 | 1018.9 |
| 20260502235404 | 51 | 2 | 0.9 | 3.5 | 0.00 | 0.00 | 0.00 | 76 | 1018.9 |
| 20260502234504 | 52 | 2 | 2.6 | 4.3 | 0.00 | 0.00 | 0.00 | 75 | 1019.0 |
| 20260502233603 | 52 | 2 | 0.9 | 3.5 | 0.00 | 0.00 | 0.00 | 74 | 1019.0 |
| 20260502232704 | 53 | 2 | 0.9 | 3.5 | 0.00 | 0.00 | 0.00 | 73 | 1019.1 |
| 20260502231804 | 53 | 2 | 0.9 | 3.5 | 0.00 | 0.00 | 0.00 | 72 | 1019.1 |
| 20260502230904 | 53 | 2 | 0.0 | 4.3 | 0.00 | 0.00 | 0.00 | 72 | 1019.2 |
| 20260502230004 | 53 | 2 | 0.9 | 3.5 | 0.00 | 0.00 | 0.00 | 72 | 1019.3 |
| 20260502225403 | 53 | 2 | 0.9 | 4.3 | 0.00 | 0.00 | 0.00 | 72 | 1019.3 |
| 20260502224504 | 52 | 2 | 0.9 | 4.3 | 0.00 | 0.00 | 0.00 | 73 | 1019.5 |
| 20260502223603 | 52 | 2 | 1.7 | 4.3 | 0.00 | 0.00 | 0.00 | 73 | 1019.4 |
| 20260502222703 | 53 | 2 | 3.5 | 5.2 | 0.00 | 0.00 | 0.00 | 72 | 1019.5 |
| 20260502222018 | 53 | 2 | 2.6 | 5.2 | 0.00 | 0.00 | 0.00 | 72 | 1019.5 |